Atlanta Dekalb, GA

12:02 PM EDT on April 30, 2017 (GMT -0400)
Dekalb-Peachtree

Weather History for KPDK - May, 2014

Change the Weather History Date:

Saturday, May 17, 2014

  Actual Average Record
Temperature  
Mean Temperature 56 °F 70 °F  
Max Temperature 69 °F 80 °F 89 °F (2001)
Min Temperature 43 °F 59 °F 43 °F (2014)
Degree Days  
Heating Degree Days 10    
Cooling Degree Days 0 5  
Month to date cooling degree days 74 64  
Year to date cooling degree days 106 113  
Growing Degree Days 4 (Base 50)    
Moisture  
Dew Point 43 °F    
Average Humidity 66    
Maximum Humidity 89    
Minimum Humidity 43    
Precipitation  
Precipitation T in 0.13 in 0.95 in (2016)
Month to date precipitation 1.65 2.30  
Year to date precipitation 17.03 20.74  
Sea Level Pressure  
Sea Level Pressure 30.18 in    
Wind  
Wind Speed 4 mph (NNW)    
Max Wind Speed 14 mph    
Max Gust Speed 17 mph    
Visibility 10 miles    
Events Rain    
T = Trace of Precipitation, MM = Missing Value Source: NWS Daily Summary

Daily Weather History Graph

Daily Weather History Graph

Search for Another Location

Airport or City:

Trip Planner

Search our weather history database for the weather conditions in past years. The results will help you decide how hot, cold, wet, or windy it might be!

Date:

Astronomy

May. 17, 2014 Rise Set
Actual Time 6:34 AM EDT 8:32 PM EDT
Civil Twilight 6:06 AM EDT 9:00 PM EDT
Nautical Twilight 5:33 AM EDT 9:34 PM EDT
Astronomical Twilight 4:57 AM EDT 10:10 PM EDT
Moon 11:34 PM EDT (5/17) 9:16 AM EDT (5/17)
Length of Visible Light 14h 53m
Length of Day
13h 58m
Waning Gibbous, 89% of the Moon is Illuminated
May 17
Waning Gibbous
May 21
Last Quarter
May 28
New
Jun 5
First Quarter
Jun 13
Full

Hourly Weather History & Observations

Time (EDT) Temp. Dew Point Humidity Pressure Visibility Wind Dir Wind Speed Gust Speed Precip Events Conditions
12:53 AM 45.0 °F 39.0 °F 80% 30.14 in 10.0 mi Calm Calm - N/A   Clear
1:53 AM 45.0 °F 41.0 °F 86% 30.14 in 10.0 mi Calm Calm - N/A   Clear
2:53 AM 45.0 °F 41.0 °F 86% 30.14 in 10.0 mi Calm Calm - N/A   Clear
3:53 AM 45.0 °F 41.0 °F 86% 30.14 in 10.0 mi Calm Calm - N/A   Clear
4:53 AM 44.1 °F 41.0 °F 89% 30.17 in 10.0 mi Calm Calm - N/A   Clear
5:53 AM 43.0 °F 39.9 °F 89% 30.17 in 10.0 mi Calm Calm - N/A   Clear
6:53 AM 43.0 °F 39.9 °F 89% 30.18 in 8.0 mi Calm Calm - N/A   Clear
7:53 AM 48.9 °F 44.1 °F 83% 30.18 in 9.0 mi Calm Calm - N/A   Clear
8:53 AM 55.9 °F 42.1 °F 60% 30.18 in 10.0 mi SSW 4.6 mph - N/A   Clear
9:53 AM 62.1 °F 39.9 °F 44% 30.19 in 10.0 mi Variable 3.5 mph - N/A   Scattered Clouds
10:53 AM 62.1 °F 39.0 °F 43% 30.21 in 10.0 mi WSW 12.7 mph 17.3 mph N/A   Overcast
11:53 AM 59.0 °F 39.9 °F 49% 30.25 in 10.0 mi WNW 9.2 mph - N/A   Overcast
12:53 PM 59.0 °F 45.0 °F 60% 30.25 in 9.0 mi NW 8.1 mph - 0.00 in Rain Light Rain
1:53 PM 61.0 °F 43.0 °F 52% 30.22 in 8.0 mi Variable 3.5 mph - 0.00 in   Mostly Cloudy
2:11 PM 60.8 °F 42.8 °F 52% 30.21 in 8.0 mi WNW 3.5 mph - N/A   Mostly Cloudy
2:53 PM 64.0 °F 42.1 °F 45% 30.19 in 8.0 mi Variable 3.5 mph - N/A   Overcast
3:53 PM 64.9 °F 43.0 °F 45% 30.17 in 8.0 mi NNE 3.5 mph - N/A   Mostly Cloudy
4:53 PM 66.9 °F 45.0 °F 45% 30.15 in 10.0 mi North 3.5 mph - N/A   Scattered Clouds
5:53 PM 66.9 °F 48.0 °F 51% 30.16 in 10.0 mi North 8.1 mph - N/A   Clear
6:53 PM 64.9 °F 48.9 °F 56% 30.16 in 10.0 mi North 8.1 mph - N/A   Scattered Clouds
7:53 PM 63.0 °F 46.9 °F 56% 30.15 in 10.0 mi NNE 4.6 mph - N/A   Clear
8:53 PM 59.0 °F 48.0 °F 67% 30.17 in 10.0 mi NNE 5.8 mph - N/A   Clear
9:53 PM 57.0 °F 48.0 °F 72% 30.17 in 10.0 mi NNE 5.8 mph - N/A   Clear
10:53 PM 57.0 °F 48.0 °F 72% 30.18 in 10.0 mi Calm Calm - N/A   Mostly Cloudy
11:53 PM 57.9 °F 48.0 °F 70% 30.18 in 10.0 mi Calm Calm - N/A   Partly Cloudy